Regional Weather Roundup
Issued by NWS Pendleton, OR

Home | Current Version | Previous Version | Text Only | Print | Product List | Glossary On
Versions: 1 2 3 4 5 6 7 8 9 10 11 12 13 14 15 16 17 18 19 20 21 22 23 24 25 26 27 28 29 30 31 32 33 34 35 36 37 38 39 40 41 42 43 44 45 46 47 48 49 50
000
ASUS46 KPDT 251225
RWRPDT
PENDLETON REGIONAL WEATHER ROUNDUP
NATIONAL WEATHER SERVICE PENDLETON OREGON
500 AM PDT SAT APR 25 2015

NOTE: FAIR INDICATES FEW OR NO CLOUDS BELOW 12,000 FEET WITH NO
SIGNIFICANT WEATHER AND/OR OBSTRUCTIONS TO VISIBILITY.

# INDICATES UNOFFICIAL STATION AND DATA

WAZ520-251310-
EAST SLOPES OF WASHINGTON CASCADES

CITY            SKY/WX      TMP DP  RH  WIND    PRES   REMARKS
#BUMPING DAM    N/A         33  N/A N/A CALM    N/A
#CLE ELUM HS    N/A         34  32  92  CALM    29.79S
#CLE ELUM LAKE  N/A         33  30  89  CALM    29.84S
#CLIFFDEL 2NW   N/A         33  32  96  CALM    N/A
#GLENWOOD       N/A         31  30  96  CALM    29.88S
#MANASTASH CYN  N/A         31  25  78  CALM    29.80S
#NELSON 3SW     N/A         31  30  96  CALM    30.08S
#NILE           N/A         31  30  96  CALM    29.11S
#RONALD 2NW     N/A         36   5  27  CALM    29.71S
#SNOWDEN        N/A         34  29  82  CALM    N/A
#TEANAWAY 4NE   N/A         32  31  96  CALM    N/A
#TROUT LAKE 1NE N/A         32  31  96  CALM    29.90S
$$

WAZ521-251310-
SIMCOE HIGHLANDS

CITY            SKY/WX      TMP DP  RH  WIND    PRES   REMARKS
#BICKLETON HS   N/A         34  29  82  W3      N/A
#CENTERVILLE 4W N/A         40  36  85  NW13    29.61R WCI 32
#CENTERVILLE 1SWN/A         39  34  82  CALM    29.85R
#GOLDENDALE     N/A         39  36  89  N1      N/A
#GOLDENDALE 1NE N/A         39  31  73  SW3     N/A
#GOODNOE HILLS  N/A         39  37  92  W8      N/A
#LYLE 6NE       N/A         38  37  96  S5      29.87R
$$

WAZ026-251310-
KITTITAS VALLEY

CITY            SKY/WX      TMP DP  RH  WIND    PRES   REMARKS
ELLENSBURG AP   CLOUDY      36  31  82  NW10    29.82S
6HR MIN TEMP:   36; 6HR MAX TEMP:   43;

YTC-OPS AREA    MOCLDY      35  29  78  W23G31  29.75  WCI 23
6HR MIN TEMP:   34; 6HR MAX TEMP:   38;

#ELLENSBURG CWU N/A         37  32  82  NW7     29.79R
#ELLENSBURG 3NE N/A         36  32  85  NW2     29.84R
#ELLENSBURG 1E  N/A         37  30  75  CALM    N/A
#KITTITAS 4N    N/A         33  27  78  N2      28.14S
#KITTITAS 3S    N/A         35  32  89  CALM    29.84R
#THORP 6N       N/A         34  32  92  N7      29.87R
$$

WAZ027-251310-
YAKIMA VALLEY

CITY            SKY/WX      TMP DP  RH  WIND    PRES   REMARKS
SUNNYSIDE AP    MOCLDY      35  32  89  N3      29.85S
YAKIMA AIRPORT  CLOUDY      42  32  67  CALM    29.84S
6HR MIN TEMP:   40; 6HR MAX TEMP:   50;

#DONALD 2NE     N/A         43  26  51  NW1     28.70R
#GRANDVIEW      N/A         40  33  76  CALM    29.87R
#MABTON         N/A         41  34  76  CALM    29.85R
#MOXEE 2E       N/A         52  25  35  SW10    29.73
#NACHES 2SW     N/A         40  33  76  W5      29.82R
#OUTLOOK DOT    N/A         N/A N/A N/A CALM    N/A
#SELAH 8E       N/A         34  28  78  SE6     N/A
#TERRACE HTS    N/A         38  31  76  CALM    29.81S
#WAPATO 4NE     N/A         43  26  51  NW1     28.70R
#WEST VALLEY    N/A         41  34  76  CALM    29.83S
#W YAKIMA       N/A         42  33  70  CALM    29.85R
#WHITE SWAN 5E  N/A         41  35  79  E1      29.85R
$$

WAZ028-251310-
LOWER COLUMBIA BASIN...WASHINGTON

CITY            SKY/WX      TMP DP  RH  WIND    PRES   REMARKS
PASCO           MOCLDY      45  37  73  S7      29.86R
6HR MIN TEMP:   44; 6HR MAX TEMP:   53;

PROSSER AWOS    N/A         37  36  96  N1      29.89R
RICHLAND AWOS   CLOUDY      45  37  73  CALM    29.86R
#BASIN CITY 5SW N/A         42  37  82  SW2     29.84R
#BENTON CITY    N/A         41  35  79  NW3     29.76S
#CONNELL 5N     N/A         35  32  89  CALM    29.84S
#CONNELL 5NW    N/A         36  33  89  CALM    29.80S
#ELTOPIA        N/A         41  38  89  CALM    29.82R
#ELTOPIA 6NW    N/A         39  35  85  CALM    28.81R
#KAHLOTUS       N/A         41  36  82  W15     29.83S WCI 33
#KENNEWICK 3S   N/A         42  37  82  S6      29.86R
#PATERSON       N/A         45  40  82  SW7     29.85S
#PROSSER        N/A         43  30  60  SW2     29.85R
#SAGEMOOR 2W    N/A         39  35  85  CALM    29.70R
#TOUCHET 2S     N/A         48  37  65  SW15    29.83S WCI 42
#WEST PASCO     N/A         45  36  70  CALM    29.87R
$$

WAZ029-251310-
FOOTHILLS OF THE BLUES...WASHINGTON

CITY            SKY/WX      TMP DP  RH  WIND    PRES   REMARKS
WALLA WALLA AP  CLOUDY      47  37  68  S9      29.86R
6HR MIN TEMP:   45; 6HR MAX TEMP:   49; 6HR PCP:  TRACE;

#DAYTON SCHOOL  N/A         45  30  55  S5      29.87R
#LOWDEN 2SE     N/A         48  38  68  W5      29.83S
#PLEASANT VIEW 1N/A         40  35  82  S7      29.88R
#PRESCOTT       N/A         43  37  79  CALM    29.84S
#SUDBURY        N/A         45  N/A N/A CALM    N/A
#WHITMAN COLLEGEN/A         47  37  68  S6      29.91R
#WAITSBURG 5S   N/A         42  36  79  S8      29.95R
#WAITSBURG 8N   N/A         41  20  43  S5      29.71S
#WALLA WALLA 5E N/A         45  38  76  S1      N/A
#WALLA WALLA U  N/A         48  39  71  CALM    29.86R
#WHITMAN MISSIONN/A         47  39  74  CALM    29.88R
$$

WAZ030-251310-
BLUE MOUNTAINS...WASHINGTON

CITY            SKY/WX      TMP DP  RH  WIND    PRES   REMARKS
#DIXIE 5SE      N/A         39  31  73  S8      29.76S
$$

ORZ009-041-WAZ024-251310-
COLUMBIA RIVER GORGE

CITY            SKY/WX      TMP DP  RH  WIND    PRES   REMARKS
HOOD RIVER AP   LGT RAIN    43  39  86  CALM    29.91S
THE DALLES AP   PTCLDY      45  38  76  NW8     29.90S
6HR MIN TEMP:   45; 6HR MAX TEMP:   48;

#ARLINGTON AIRPON/A         40  36  85  S3      29.99S
#ARLINGTON HS   N/A         43  37  79  W1      29.81R
#CELILO DOT     N/A         46  38  73  S5      N/A
#MOSIER 1S      N/A         41  35  79  CALM    29.88S
#MURDOCK        N/A         48  41  77  NW9     29.92S
#RUFUS DOT      N/A         46  39  76  NE3     N/A

$$

ORZ510-251310-
NORTH CENTRAL OREGON

CITY            SKY/WX      TMP DP  RH  WIND    PRES   REMARKS
#CHENOWITH 1W   N/A         38  36  92  W12     N/A    WCI 30
#COW CYN RST AREN/A         37  29  72  S1      N/A
#DUFUR 9E       N/A         38  35  89  CALM    29.93S
#GRASS VALLEY 1SN/A         34  31  89  S2      29.91S
#KENT DOT       N/A         33  28  82  S7      N/A
#MAUPIN SCHOOL  N/A         43  35  73  CALM    29.91R
#MORO SCHOOL    N/A         37  36  96  SW1     29.88S
#SHANIKO 5WSW   N/A         33  27  78  SE8     N/A
#SHANIKO 4NW    N/A         34  29  82  SW2     29.83S
#TYGH VALLEY 2NEN/A         40  35  82  CALM    29.88R
#WAPANITIA AIRPON/A         39  33  79  CALM    29.90R
#WASCO DOT      N/A         40  37  89  W1      N/A
#WASCO 5NE      N/A         38  35  89  W2      29.88S
$$

ORZ511-251310-
CENTRAL OREGON

CITY            SKY/WX      TMP DP  RH  WIND    PRES   REMARKS
BEND AIRPORT    MOCLDY      30  27  88  SE6     29.85S
MADRAS AIRPORT  CLOUDY      34  32  92  S5      29.88S
PRINEVILLE AP   MOCLDY      27  27  100 CALM    29.87R
REDMOND AIRPORT MOCLDY      31  27  85  S3      29.86S
6HR MIN TEMP:   28; 6HR MAX TEMP:   36;

#BEND 1SW       N/A         35  30  82  CALM    N/A
#BEND-AWBREY    N/A         34  30  85  CALM    29.89R
#BEND-KIM LN    N/A         33  31  92  CALM    29.82S
#CROOKED RVR RANN/A         36  30  79  CALM    29.89R
#CULVER         N/A         37  31  79  CALM    29.83S
#LAKE BILLY CHINN/A         39  22  50  CALM    29.97S
#POWELL BUTTE 3EN/A         29  25  85  SE3     N/A
#POWELL BUTTE   N/A         33  26  75  S1      29.50S
#PRINEVILLE 3N  N/A         31  28  88  NE2     29.86S
#WARM SPRINGS   N/A         40  34  79  CALM    29.86S

$$


ORZ509-251310-
EAST SLOPES OF OREGON CASCADES

CITY            SKY/WX      TMP DP  RH  WIND    PRES   REMARKS
#BLUE BOX PASS  N/A         32  -16 11  CALM    N/A
#CAMP SHERMAN   N/A         36  31  82  CALM    29.87R
#LA PINE 4NW    N/A         30  26  85  CALM    29.95S
#SISTERS AIRPOR N/A         36  34  92  CALM    30.17S
#SISTERS ODOT   N/A         36  N/A N/A CALM    N/A
#SISTERS 3N     N/A         35  26  69  CALM    29.90S
#SUNRIVER       N/A         33  30  89  CALM    29.79S
#TUMALO 3W      N/A         31  26  81  S3      29.78S
#WANOGA BUTTE D N/A         27  25  92  CALM    N/A

$$

ORZ044-251310-
LOWER COLUMBIA BASIN...OREGON

CITY            SKY/WX      TMP DP  RH  WIND    PRES   REMARKS
HERMISTON       PTCLDY      41  34  76  SW6     29.87R
6HR MIN TEMP:   40; 6HR MAX TEMP:   47;

#BOARDMAN 8SW   N/A         44  38  79  SW7     29.87R
#IONE SCHOOL    N/A         44  31  60  S7      29.85S
#IRRIGON 4NW    N/A         44  38  79  S7      N/A
#UMATILLA SCHOOLN/A         39  38  96  E1      29.93R
#UMATILLA       N/A         57  36  45  SW7     29.80R
$$

ORZ507-251310-
NORTHERN FOOTHILLS OF THE BLUES

CITY            SKY/WX      TMP DP  RH  WIND    PRES   REMARKS
PENDLETON AIRPT PTCLDY      41  34  76  S7      29.86R
6HR MIN TEMP:   40; 6HR MAX TEMP:   47;

#ADAMS 3WNW     N/A         38  34  85  S1      29.89R
#ATHENA         N/A         39  35  85  CALM    29.89R
#CAYUSE         N/A         41  37  86  E1      29.87R
#HELIX SCHOOL   N/A         40  35  82  S2      29.86S
#HELIX 3N       N/A         38  33  82  S6      29.83S
#HELIX 6SW      N/A         38  33  82  CALM    29.86R
#HOLDMAN 6E     N/A         41  34  76  N7      29.68R
#M-F FERNDALE   N/A         47  36  65  CALM    29.85S
#M-F GROVE ELEM N/A         44  33  65  CALM    29.84S
#M-FREEWATER 5SEN/A         42  35  76  CALM    29.86S
#PENDLETON DNTN N/A         42  30  62  CALM    29.87S
#PDT AQUATIC CTRN/A         43  29  57  CALM    29.86S
#PENDLETON 5NE  N/A         38  34  85  CALM    29.84R
#PDT SUNRIDGE   N/A         39  35  85  CALM    29.88S
#PENDLETON 7NW  N/A         40  31  70  CALM    29.85S
#PILOT ROCK     N/A         41  34  76  CALM    29.88F
#TUTUILLA       N/A         43  38  82  CALM    29.88R
#UMAPINE 2E     N/A         47  38  71  SW1     29.83R
#WESTON SCHOOL  N/A         41  32  70  SW2     29.85R

$$

ORZ508-251310-
SOUTHERN FOOTHILLS OF THE BLUES

CITY            SKY/WX      TMP DP  RH  WIND    PRES   REMARKS
LEXINGTON       PTCLDY      41  34  76  S3      29.88S
#AJAX           N/A         38  27  64  S5      29.81S
#CONDON SCHOOL  N/A         33  29  85  CALM    29.82S
#CONDON 5W      N/A         34  28  78  W6      29.81R
#FOSSIL SCHOOL  N/A         34  32  92  CALM    29.85R
#HEPPNER EOC    N/A         41  32  70  SW7     29.81S
#HEPPNER 4NE    N/A         36  31  82  S3      29.88R
#LEXINGTON 2SE  N/A         41  33  73  CALM    29.85R
#MIKKALO        N/A         39  31  73  W5      29.88R
#RUGGS 5NE      N/A         34  30  85  SW5     30.01S
#RUGGS 2SW      N/A         35  30  82  SW6     29.91R

$$

ORZ502-503-251310-
BLUE MOUNTAINS

CITY            SKY/WX      TMP DP  RH  WIND    PRES   REMARKS
MEACHAM         PTCLDY      31  29  92  CALM    29.83S
#BATTLE MTN DOT N/A         33  33  100 S2      N/A
#HEPPNER 15SE   N/A         30  27  88  CALM    29.72S
#LADD CYN SMT   N/A         27  25  92  CALM    N/A
#LADD CREEK ODOTN/A         31  29  92  SW2     N/A
#LONG CREEK HS  N/A         34  34  100 CALM    29.79S
#N POWDER DOT   N/A         30  28  92  NE2     N/A
#PIKES PEAK     N/A         37  32  82  S8      27.99S
#TOLLGATE       N/A         31  29  92  SW1     29.76S
#TROY SCHOOL    N/A         36  31  82  CALM    29.74R
#UKIAH          N/A         32  29  89  CALM    29.91S
#WESTON 4E      N/A         36  32  85  S3      29.83R
$$

ORZ505-251310-
JOHN DAY BASIN

CITY            SKY/WX      TMP DP  RH  WIND    PRES   REMARKS
JOHN DAY        CLOUDY      34  28  78  E7      29.85R
#JOHN DAY KJDY  N/A         35  30  82  E1      29.87F
#DAYVILLE SCHOOLN/A         38  30  73  CALM    29.83S
#MITCHELL       N/A         34  30  85  CALM    30.00S
#MONUMENT HS    N/A         35  29  78  CALM    29.88S
#MT. VERNON 5SE N/A         32  27  82  CALM    29.79R
#WINLOCK        N/A         33  29  85  CALM    29.94S
$$

ORZ506-251310-
OCHOCO AND JOHN DAY HIGHLANDS

CITY            SKY/WX      TMP DP  RH  WIND    PRES   REMARKS
#BUCK CREEK DOT N/A         33  33  100 E1      N/A
#HORSE RIDGE DO N/A         22  18  84  SE2     N/A
#PAULINA SCHOOL N/A         39  33  79  CALM    29.83S
#PINE MTN OBS   N/A         27  23  85  CALM    N/A
#PRAIRIE CITY   N/A         24  20  84  E1      30.06R
#SENECA         N/A         25  N/A N/A CALM    N/A
#SENECA 9NW     N/A         23  20  88  CALM    29.85R
$$

ORZ049-251310-
GRANDE RONDE VALLEY

CITY            SKY/WX      TMP DP  RH  WIND    PRES   REMARKS
LA GRANDE       CLOUDY      34  21  58  CALM    29.84R
#COVE           N/A         31  28  88  N1      29.86S
#COVE SCHOOL    N/A         31  26  81  E1      29.83S
#ELGIN 3N       N/A         29  23  78  CALM    29.84S
#ELGIN 1E       N/A         32  27  82  CALM    N/A
#IMBLER SCHOOL  N/A         45  28  51  CALM    29.83R
#ISLAND CITY 4N N/A         43  42  96  CALM    29.92R
#LADD CYN DOT   N/A         35  29  78  SE10    N/A
#LA GRANDE ELEM N/A         39  30  70  W12     29.88S WCI 32
#UNION 1S       N/A         32  28  85  CALM    29.78S
$$

ORZ050-251310-
WALLOWA COUNTY

CITY            SKY/WX      TMP DP  RH  WIND    PRES   REMARKS
JOSEPH AIRPORT  CLEAR       28  27  96  CALM    29.84R
#ENTERPRISE HS  N/A         29  26  88  CALM    29.87S
#IMNAHA SCHOOL  N/A         38  33  82  S2      29.86R
#IMNAHA 10S     N/A         35  29  78  SW2     29.84R
#JOSEPH 3N      N/A         25  22  88  CALM    29.87R
#JOSEPH 3W      N/A         29  24  81  SW1     29.68S
#LOSTINE        N/A         29  26  88  CALM    29.68R
#MT HOWARD 8000 N/A         21  19  92  CALM    29.72R
#PROMISE 1S     N/A         30  27  88  NE1     29.96F
#SHEEP RDG 7000 N/A         24  20  84  CALM    29.92F
#WALLOWA SCHOOL N/A         28  25  88  CALM    30.82R



$$



USA.gov is the U.S. government's official web portal to all federal, state and local government web resources and services.